MAS2610 WMKK-WBKK

Flight info

Callsign MAS2610
Flight time N/A
Altitude 37000
Route KIMAT1D KIMAT Y344 VPK M758 VIDIP DCT EGENU
Aircraft B738/M-SDE2E3FGHIRWXY/LB1

Departure

Time 2026-05-05 13:53
Airport Kuala Lumpur International Airport (WMKK)

Arrival

Time N/A
Airport Kota Kinabalu International Airport (WBKK)
Time Latitude Longitude Altitude Speed Heading
2026-05-05 13:16 2.74960 101.71336 78 ft 0 kts 236°
2026-05-05 13:39 2.74962 101.71338 78 ft 2 kts 237°
2026-05-05 13:39 2.74969 101.71353 78 ft 3 kts 242°
2026-05-05 13:39 2.74980 101.71370 78 ft 3 kts 232°
2026-05-05 13:39 2.74993 101.71385 78 ft 3 kts 220°
2026-05-05 13:40 2.75009 101.71397 78 ft 3 kts 207°
2026-05-05 13:40 2.75019 101.71402 78 ft 0 kts 204°
2026-05-05 13:43 2.74999 101.71421 78 ft 7 kts 68°
2026-05-05 13:44 2.75030 101.71446 78 ft 8 kts 35°
2026-05-05 13:44 2.75086 101.71505 78 ft 11 kts 56°
2026-05-05 13:44 2.75116 101.71553 78 ft 5 kts 56°
2026-05-05 13:44 2.75138 101.71585 78 ft 16 kts 59°
2026-05-05 13:45 2.75202 101.71708 78 ft 17 kts 96°
2026-05-05 13:45 2.75144 101.71772 78 ft 10 kts 146°
2026-05-05 13:45 2.75101 101.71801 78 ft 11 kts 146°
2026-05-05 13:45 2.75001 101.71871 78 ft 7 kts 130°
2026-05-05 13:46 2.75000 101.71872 78 ft 0 kts 125°
2026-05-05 13:51 2.74996 101.71893 78 ft 14 kts 84°
2026-05-05 13:51 2.75019 101.71947 78 ft 0 kts 54°
2026-05-05 13:51 2.75026 101.71956 78 ft 10 kts 55°
2026-05-05 13:51 2.75103 101.72026 78 ft 13 kts 337°
2026-05-05 13:52 2.75168 101.71983 78 ft 9 kts 324°
2026-05-05 13:52 2.75251 101.71926 78 ft 26 kts 326°
2026-05-05 13:52 2.75582 101.71704 78 ft 89 kts 326°
2026-05-05 13:52 2.76269 101.71246 78 ft 146 kts 326°
2026-05-05 13:53 2.77207 101.70598 305 ft 175 kts 324°
2026-05-05 13:53 2.78206 101.69879 1033 ft 179 kts 324°
2026-05-05 13:53 2.79224 101.69110 1689 ft 189 kts 322°
2026-05-05 13:53 2.80354 101.68438 2389 ft 195 kts 334°
2026-05-05 13:54 2.81709 101.67939 2740 ft 219 kts 341°
2026-05-05 13:54 2.83245 101.67477 3022 ft 242 kts 343°
2026-05-05 13:54 2.84886 101.66964 3653 ft 248 kts 341°
2026-05-05 13:54 2.86535 101.66421 4460 ft 249 kts 341°
2026-05-05 13:55 2.88184 101.65871 5117 ft 258 kts 341°
2026-05-05 13:55 2.89953 101.65352 5763 ft 265 kts 352°
2026-05-05 13:55 2.91770 101.65474 6495 ft 267 kts 15°
2026-05-05 13:55 2.93514 101.66138 7221 ft 270 kts 25°
2026-05-05 13:56 2.95194 101.66996 7924 ft 273 kts 29°
2026-05-05 13:56 2.96853 101.67940 8608 ft 276 kts 30°
2026-05-05 13:56 2.98518 101.68912 9263 ft 279 kts 30°
2026-05-05 13:56 3.00204 101.69894 9907 ft 282 kts 31°
2026-05-05 13:57 3.01333 101.70552 10314 ft 284 kts 31°
2026-05-05 13:57 3.03620 101.71884 10849 ft 299 kts 31°
2026-05-05 13:57 3.04890 101.72623 11008 ft 311 kts 31°
2026-05-05 13:57 3.06809 101.73740 11235 ft 326 kts 31°
2026-05-05 13:58 3.08818 101.74908 11437 ft 341 kts 31°
2026-05-05 13:58 3.10908 101.76123 11765 ft 351 kts 31°
2026-05-05 13:58 3.13033 101.77358 12271 ft 355 kts 31°
2026-05-05 13:58 3.15155 101.78641 12786 ft 357 kts 36°
2026-05-05 13:59 3.18693 101.82110 13763 ft 359 kts 53°
2026-05-05 13:59 3.20142 101.84159 14208 ft 361 kts 57°
2026-05-05 14:00 3.22900 101.88369 15063 ft 366 kts 57°
2026-05-05 14:00 3.24322 101.90490 15496 ft 367 kts 57°
2026-05-05 14:00 3.25487 101.92763 15874 ft 369 kts 72°
2026-05-05 14:00 3.25891 101.95294 16247 ft 370 kts 89°
2026-05-05 14:01 3.25659 101.97866 16617 ft 373 kts 99°
2026-05-05 14:01 3.25138 102.00416 16970 ft 375 kts 102°
2026-05-05 14:01 3.24502 102.02953 17338 ft 377 kts 104°
2026-05-05 14:01 3.23832 102.05494 17679 ft 379 kts 104°
2026-05-05 14:02 3.23163 102.08050 17998 ft 381 kts 104°
2026-05-05 14:02 3.22494 102.10623 18317 ft 383 kts 104°
2026-05-05 14:02 3.21826 102.13203 18624 ft 384 kts 104°
2026-05-05 14:02 3.21164 102.15769 18919 ft 386 kts 104°
2026-05-05 14:03 3.20494 102.18376 19200 ft 388 kts 104°
2026-05-05 14:03 3.19820 102.20997 19509 ft 389 kts 104°
2026-05-05 14:03 3.19146 102.23620 19797 ft 390 kts 104°
2026-05-05 14:03 3.18469 102.26255 20056 ft 392 kts 104°
2026-05-05 14:04 3.17790 102.28902 20316 ft 393 kts 104°
2026-05-05 14:04 3.17117 102.31561 20563 ft 395 kts 102°
2026-05-05 14:04 3.16738 102.34289 20799 ft 397 kts 93°
2026-05-05 14:04 3.16812 102.37050 21064 ft 397 kts 85°
2026-05-05 14:05 3.17207 102.39801 21284 ft 399 kts 81°
2026-05-05 14:05 3.17740 102.42534 21499 ft 401 kts 79°
2026-05-05 14:05 3.18319 102.45240 21708 ft 403 kts 78°
2026-05-05 14:05 3.18907 102.47982 21915 ft 404 kts 78°
2026-05-05 14:06 3.19494 102.50734 22119 ft 405 kts 78°
2026-05-05 14:06 3.20084 102.53499 22313 ft 407 kts 78°
2026-05-05 14:06 3.20674 102.56275 22502 ft 408 kts 79°
2026-05-05 14:06 3.21264 102.59054 22687 ft 409 kts 79°
2026-05-05 14:07 3.21857 102.61850 22866 ft 411 kts 79°
2026-05-05 14:07 3.22451 102.64656 23044 ft 412 kts 79°
2026-05-05 14:07 3.23045 102.67462 23246 ft 412 kts 79°
2026-05-05 14:07 3.23640 102.70272 23409 ft 414 kts 79°
2026-05-05 14:08 3.24238 102.73094 23568 ft 415 kts 79°
2026-05-05 14:08 3.24838 102.75928 23727 ft 416 kts 79°
2026-05-05 14:08 3.25438 102.78761 23881 ft 417 kts 79°
2026-05-05 14:08 3.26039 102.81604 24028 ft 418 kts 79°
2026-05-05 14:09 3.26635 102.84422 24180 ft 419 kts 79°
2026-05-05 14:09 3.27246 102.87315 24330 ft 420 kts 79°
2026-05-05 14:09 3.27851 102.90176 24474 ft 421 kts 79°
2026-05-05 14:09 3.28449 102.93008 24612 ft 422 kts 79°
2026-05-05 14:10 3.29056 102.95883 24751 ft 422 kts 79°
2026-05-05 14:10 3.29664 102.98764 24880 ft 423 kts 79°
2026-05-05 14:10 3.30274 103.01652 25008 ft 424 kts 79°
2026-05-05 14:10 3.30883 103.04541 25134 ft 425 kts 79°
2026-05-05 14:11 3.31494 103.07433 25258 ft 425 kts 79°
2026-05-05 14:11 3.32107 103.10338 25373 ft 426 kts 79°
2026-05-05 14:11 3.32720 103.13240 25492 ft 427 kts 79°
2026-05-05 14:11 3.33334 103.16148 25603 ft 428 kts 79°
2026-05-05 14:12 3.33949 103.19066 25717 ft 428 kts 79°
2026-05-05 14:12 3.34565 103.21987 25822 ft 429 kts 79°
2026-05-05 14:12 3.35180 103.24907 25927 ft 430 kts 79°
2026-05-05 14:12 3.35795 103.27825 26027 ft 430 kts 79°
2026-05-05 14:13 3.36413 103.30758 26126 ft 431 kts 79°
2026-05-05 14:13 3.37030 103.33692 26223 ft 431 kts 79°
2026-05-05 14:13 3.37649 103.36632 26318 ft 432 kts 79°
2026-05-05 14:13 3.38270 103.39579 26411 ft 433 kts 79°
2026-05-05 14:14 3.38742 103.42508 26496 ft 433 kts 84°
2026-05-05 14:14 3.38969 103.45511 26585 ft 433 kts 87°
2026-05-05 14:14 3.39097 103.48526 26667 ft 434 kts 88°
2026-05-05 14:14 3.39213 103.51545 26751 ft 434 kts 88°
2026-05-05 14:15 3.39330 103.54563 26831 ft 435 kts 88°
2026-05-05 14:15 3.39450 103.57586 26908 ft 435 kts 88°
2026-05-05 14:15 3.39573 103.60617 26960 ft 436 kts 88°
2026-05-05 14:15 3.39698 103.63651 27026 ft 437 kts 88°
2026-05-05 14:16 3.39824 103.66695 27102 ft 437 kts 88°
2026-05-05 14:16 3.39949 103.69741 27177 ft 438 kts 88°
2026-05-05 14:16 3.40074 103.72787 27282 ft 437 kts 88°
2026-05-05 14:16 3.40200 103.75841 27347 ft 438 kts 88°
2026-05-05 14:17 3.40323 103.78847 27411 ft 438 kts 88°
2026-05-05 14:17 3.40449 103.81898 27476 ft 439 kts 88°
2026-05-05 14:17 3.40574 103.84953 27539 ft 439 kts 88°
2026-05-05 14:17 3.40700 103.88009 27600 ft 440 kts 88°
2026-05-05 14:18 3.40825 103.91068 27661 ft 440 kts 88°
2026-05-05 14:18 3.40958 103.94128 27719 ft 440 kts 87°
2026-05-05 14:18 3.41110 103.97203 27776 ft 441 kts 87°
2026-05-05 14:18 3.41261 104.00267 27832 ft 441 kts 88°
2026-05-05 14:19 3.41410 104.03302 27857 ft 442 kts 87°
2026-05-05 14:19 3.41560 104.06373 27911 ft 443 kts 87°
2026-05-05 14:19 3.41712 104.09459 27964 ft 443 kts 87°
2026-05-05 14:19 3.41863 104.12544 28016 ft 443 kts 87°
2026-05-05 14:20 3.42178 104.18709 28113 ft 444 kts 87°
2026-05-05 14:20 3.42495 104.24887 28208 ft 444 kts 87°
2026-05-05 14:21 3.42808 104.31033 28298 ft 445 kts 87°
2026-05-05 14:21 3.43122 104.37226 28386 ft 446 kts 87°
2026-05-05 14:22 3.43436 104.43431 28470 ft 446 kts 87°
2026-05-05 14:22 3.43751 104.49641 28549 ft 447 kts 87°
2026-05-05 14:23 3.44068 104.55852 28624 ft 447 kts 87°
2026-05-05 14:23 3.44388 104.62078 28674 ft 448 kts 87°
2026-05-05 14:24 3.44708 104.68317 28740 ft 449 kts 87°
2026-05-05 14:24 3.45025 104.74520 28806 ft 449 kts 87°
2026-05-05 14:25 3.45345 104.80776 28869 ft 450 kts 87°
2026-05-05 14:25 3.45665 104.87035 28931 ft 450 kts 87°
2026-05-05 14:26 3.45990 104.93302 28990 ft 451 kts 87°
2026-05-05 14:26 3.46309 104.99537 29017 ft 452 kts 87°
2026-05-05 14:27 3.46629 105.05825 29072 ft 452 kts 87°
2026-05-05 14:27 3.46949 105.12111 29123 ft 452 kts 87°
2026-05-05 14:28 3.47269 105.18410 29173 ft 453 kts 87°
2026-05-05 14:28 3.47589 105.24716 29193 ft 454 kts 87°
2026-05-05 14:29 3.47908 105.31029 29238 ft 454 kts 87°
2026-05-05 14:29 3.48226 105.37316 29284 ft 455 kts 87°
2026-05-05 14:30 3.48544 105.43642 29314 ft 455 kts 87°
2026-05-05 14:30 3.48866 105.49983 29339 ft 456 kts 87°
2026-05-05 14:31 3.49187 105.56316 29417 ft 455 kts 87°
2026-05-05 14:31 3.49506 105.62652 29468 ft 455 kts 88°
2026-05-05 14:32 3.49824 105.68989 29509 ft 456 kts 88°
2026-05-05 14:32 3.50139 105.75290 29525 ft 457 kts 87°
2026-05-05 14:33 3.50454 105.81653 29559 ft 457 kts 88°
2026-05-05 14:33 3.50765 105.88016 29597 ft 457 kts 87°
2026-05-05 14:34 3.51093 105.94385 29632 ft 458 kts 87°
2026-05-05 14:34 3.51418 106.00710 29658 ft 458 kts 87°
2026-05-05 14:35 3.51747 106.07087 29672 ft 459 kts 87°
2026-05-05 14:35 3.52076 106.13466 29705 ft 459 kts 87°
2026-05-05 14:36 3.52402 106.19847 29739 ft 459 kts 87°
2026-05-05 14:36 3.52728 106.26235 29767 ft 459 kts 87°
2026-05-05 14:37 3.53054 106.32622 29797 ft 460 kts 87°
2026-05-05 14:37 3.53378 106.38970 29824 ft 460 kts 87°
2026-05-05 14:38 3.53703 106.45365 29852 ft 460 kts 87°
2026-05-05 14:38 3.54029 106.51765 29878 ft 460 kts 87°
2026-05-05 14:39 3.54354 106.58162 29903 ft 460 kts 87°
2026-05-05 14:39 3.54681 106.64555 29925 ft 460 kts 87°
2026-05-05 14:40 3.55007 106.70963 29950 ft 460 kts 87°
2026-05-05 14:40 3.55331 106.77367 29972 ft 460 kts 87°
2026-05-05 14:41 3.55653 106.83728 29993 ft 460 kts 87°
2026-05-05 14:41 3.55994 106.90133 30012 ft 461 kts 85°
2026-05-05 14:42 3.57088 106.96457 30030 ft 461 kts 76°
2026-05-05 14:42 3.58717 107.02679 30051 ft 461 kts 75°
2026-05-05 14:43 3.60352 107.08856 30069 ft 461 kts 75°
2026-05-05 14:43 3.61990 107.15071 30088 ft 461 kts 75°
2026-05-05 14:44 3.63623 107.21286 30105 ft 461 kts 75°
2026-05-05 14:44 3.65254 107.27495 30122 ft 461 kts 75°
2026-05-05 14:45 3.66888 107.33717 30145 ft 461 kts 75°
2026-05-05 14:45 3.68509 107.39893 30154 ft 461 kts 75°
2026-05-05 14:46 3.69873 107.45097 30165 ft 461 kts 75°
2026-05-05 14:46 3.71502 107.51314 30178 ft 461 kts 75°
2026-05-05 14:47 3.73131 107.57533 30191 ft 461 kts 75°
2026-05-05 14:47 3.74750 107.63720 30204 ft 462 kts 75°
2026-05-05 14:48 3.76379 107.69942 30215 ft 462 kts 75°
2026-05-05 14:48 3.78007 107.76166 30237 ft 461 kts 75°
2026-05-05 14:49 3.79634 107.82388 30243 ft 461 kts 75°
2026-05-05 14:49 3.81260 107.88606 30249 ft 462 kts 75°
2026-05-05 14:50 3.82877 107.94793 30256 ft 462 kts 75°
2026-05-05 14:50 3.84501 108.01012 30264 ft 462 kts 75°
2026-05-05 14:51 3.86128 108.07238 30273 ft 462 kts 75°
2026-05-05 14:51 3.87755 108.13470 30281 ft 462 kts 75°
2026-05-05 14:52 3.89379 108.19695 30289 ft 462 kts 75°
2026-05-05 14:52 3.91004 108.25922 30296 ft 462 kts 75°
2026-05-05 14:53 3.92617 108.32106 30303 ft 462 kts 75°
2026-05-05 14:53 3.94242 108.38338 30309 ft 462 kts 75°
2026-05-05 14:54 3.95868 108.44568 30363 ft 461 kts 75°
2026-05-05 14:54 3.97489 108.50790 30414 ft 460 kts 75°
2026-05-05 14:55 3.99093 108.56952 30420 ft 460 kts 76°
2026-05-05 14:55 4.00711 108.63168 30426 ft 461 kts 75°
2026-05-05 14:56 4.02328 108.69383 30433 ft 461 kts 75°
2026-05-05 14:56 4.03955 108.75592 30467 ft 460 kts 75°
2026-05-05 14:57 4.05585 108.81797 30473 ft 460 kts 75°
2026-05-05 14:57 4.07204 108.87967 30480 ft 461 kts 75°
2026-05-05 14:58 4.08832 108.94176 30486 ft 461 kts 75°
2026-05-05 14:58 4.09645 108.97275 30619 ft 457 kts 75°
2026-05-05 14:58 4.10446 109.00333 30892 ft 451 kts 75°
2026-05-05 14:59 4.11238 109.03355 31167 ft 445 kts 76°
2026-05-05 14:59 4.12020 109.06332 31441 ft 439 kts 76°
2026-05-05 14:59 4.12791 109.09270 31715 ft 433 kts 76°
2026-05-05 14:59 4.13553 109.12174 31989 ft 428 kts 76°
2026-05-05 15:00 4.14304 109.15038 32263 ft 422 kts 76°
2026-05-05 15:00 4.14796 109.16914 32444 ft 419 kts 76°
2026-05-05 15:00 4.15778 109.20661 32811 ft 412 kts 76°
2026-05-05 15:00 4.16500 109.23417 33085 ft 406 kts 76°
2026-05-05 15:01 4.17204 109.26106 33356 ft 401 kts 76°
2026-05-05 15:01 4.17908 109.28789 33629 ft 396 kts 77°
2026-05-05 15:01 4.18605 109.31445 33903 ft 390 kts 77°
2026-05-05 15:01 4.19289 109.34056 34173 ft 385 kts 77°
2026-05-05 15:02 4.19965 109.36640 34447 ft 379 kts 77°
2026-05-05 15:02 4.20630 109.39182 34721 ft 374 kts 77°
2026-05-05 15:02 4.21284 109.41685 34993 ft 368 kts 77°
2026-05-05 15:02 4.21920 109.44116 35262 ft 362 kts 77°
2026-05-05 15:03 4.22553 109.46538 35520 ft 357 kts 77°
2026-05-05 15:03 4.23181 109.48940 35640 ft 355 kts 77°
2026-05-05 15:03 4.23804 109.51324 35764 ft 353 kts 77°
2026-05-05 15:03 4.24425 109.53702 35888 ft 351 kts 76°
2026-05-05 15:04 4.25043 109.56064 36013 ft 350 kts 76°
2026-05-05 15:04 4.25654 109.58412 36137 ft 347 kts 77°
2026-05-05 15:04 4.26257 109.60755 36262 ft 345 kts 77°
2026-05-05 15:04 4.26854 109.63076 36386 ft 343 kts 77°
2026-05-05 15:05 4.28035 109.67675 36633 ft 338 kts 76°
2026-05-05 15:05 4.28618 109.69946 36757 ft 336 kts 76°
2026-05-05 15:05 4.29198 109.72207 36868 ft 334 kts 76°
2026-05-05 15:06 4.29770 109.74436 36871 ft 335 kts 76°
2026-05-05 15:06 4.30933 109.78970 36874 ft 337 kts 76°
2026-05-05 15:07 4.32108 109.83551 36874 ft 340 kts 76°
2026-05-05 15:07 4.33293 109.88173 36877 ft 343 kts 76°
2026-05-05 15:08 4.34487 109.92831 36878 ft 346 kts 76°
2026-05-05 15:08 4.35685 109.97497 36879 ft 349 kts 76°
2026-05-05 15:09 4.36901 110.02237 36879 ft 352 kts 76°
2026-05-05 15:09 4.38126 110.07014 36879 ft 355 kts 76°
2026-05-05 15:10 4.39361 110.11834 36879 ft 359 kts 76°
2026-05-05 15:10 4.40605 110.16692 36878 ft 362 kts 76°
2026-05-05 15:11 4.41861 110.21597 36879 ft 365 kts 76°
2026-05-05 15:11 4.43125 110.26537 36880 ft 367 kts 76°
2026-05-05 15:12 4.44400 110.31520 36879 ft 370 kts 76°
2026-05-05 15:12 4.45675 110.36502 36888 ft 373 kts 76°
2026-05-05 15:13 4.46975 110.41587 36889 ft 376 kts 76°
2026-05-05 15:13 4.48268 110.46645 36889 ft 378 kts 76°
2026-05-05 15:14 4.49577 110.51767 36888 ft 381 kts 76°
2026-05-05 15:14 4.50896 110.56930 36889 ft 383 kts 76°
2026-05-05 15:15 4.52224 110.62130 36887 ft 385 kts 76°
2026-05-05 15:15 4.53556 110.67349 36888 ft 388 kts 76°
2026-05-05 15:16 4.54896 110.72600 36888 ft 390 kts 76°
2026-05-05 15:16 4.56244 110.77884 36888 ft 392 kts 76°
2026-05-05 15:17 4.57591 110.83165 36891 ft 394 kts 76°
2026-05-05 15:17 4.58951 110.88498 36892 ft 396 kts 76°
2026-05-05 15:18 4.60318 110.93862 36891 ft 398 kts 76°
2026-05-05 15:18 4.61691 110.99251 36892 ft 399 kts 76°
2026-05-05 15:19 4.63068 111.04659 36890 ft 401 kts 76°
2026-05-05 15:19 4.64450 111.10088 36892 ft 402 kts 76°
2026-05-05 15:20 4.65827 111.15497 36892 ft 404 kts 76°
2026-05-05 15:20 4.67220 111.20971 36892 ft 405 kts 76°
2026-05-05 15:21 4.68614 111.26453 36892 ft 406 kts 76°
2026-05-05 15:21 4.70015 111.31961 36892 ft 408 kts 76°
2026-05-05 15:22 4.71417 111.37478 36891 ft 409 kts 76°
2026-05-05 15:22 4.72823 111.43011 36892 ft 410 kts 76°
2026-05-05 15:23 4.74232 111.48559 36891 ft 411 kts 76°
2026-05-05 15:23 4.75636 111.54087 36891 ft 412 kts 75°
2026-05-05 15:24 4.77054 111.59664 36881 ft 413 kts 76°
2026-05-05 15:24 4.78472 111.65253 36879 ft 414 kts 76°
2026-05-05 15:25 4.79892 111.70856 36879 ft 415 kts 76°
2026-05-05 15:25 4.81313 111.76468 36881 ft 415 kts 76°
2026-05-05 15:26 4.82729 111.82057 36880 ft 416 kts 76°
2026-05-05 15:26 4.84168 111.87685 36890 ft 417 kts 76°
2026-05-05 15:27 4.85633 111.93324 36892 ft 417 kts 76°
2026-05-05 15:27 4.87097 111.98962 36892 ft 418 kts 76°
2026-05-05 15:28 4.88561 112.04606 36892 ft 418 kts 76°
2026-05-05 15:28 4.90018 112.10228 36892 ft 419 kts 76°
2026-05-05 15:29 4.91483 112.15884 36892 ft 419 kts 76°
2026-05-05 15:29 4.92953 112.21549 36889 ft 420 kts 76°
2026-05-05 15:30 4.94424 112.27220 36885 ft 421 kts 76°
2026-05-05 15:30 4.95898 112.32903 36884 ft 421 kts 76°
2026-05-05 15:31 4.97363 112.38560 36884 ft 422 kts 76°
2026-05-05 15:31 4.98838 112.44256 36884 ft 422 kts 76°
2026-05-05 15:32 5.00311 112.49950 36883 ft 422 kts 76°
2026-05-05 15:32 5.01789 112.55662 36883 ft 423 kts 76°
2026-05-05 15:33 5.03264 112.61369 36882 ft 423 kts 76°
2026-05-05 15:33 5.04742 112.67087 36882 ft 423 kts 76°
2026-05-05 15:34 5.05972 112.71846 36882 ft 424 kts 76°
2026-05-05 15:34 5.07451 112.77576 36881 ft 424 kts 76°
2026-05-05 15:35 5.08920 112.83266 36881 ft 424 kts 76°
2026-05-05 15:35 5.10652 112.89979 36881 ft 425 kts 76°
2026-05-05 15:36 5.11882 112.94745 36880 ft 425 kts 76°